CELTEE 1

Last updated on Tue Jul 01 2025 00:03:44 GMT+0000 (Coordinated Universal Time)

1 41850U 16067C 25181.50643006 .00003654 00000+0 20090-3 0 9990 2 41850 98.1055 19.4459 0001706 56.4415 303.6978 15.14792434472558
UTC large
Height (km)
Speed (km/s)
/
Latitude / Longitude
Inclination (degrees)
Orbital Period (minutes)
Azimuth
Elevation
Range (km)
Doppler Factor

Next 0 passes for location: London (51.5072 / 0.1276)

Sorry there are no passes over London.